Location: Newark
(51.3318°N, 0.0053°E)
Time: 13:22:36
(UTC+00:00)

RS-44 - Pass Details

Date: 02 July 2022
Orbit: 1175 x 1510 km, 82.5° (Epoch: 18 August)

Event Time Altitude Azimuth Distance (km) Brightness Sun altitude
Rises 21:50:39 0° 224° (SW) 4,398 ? -10.1°
Reaches altitude 10° 21:53:42 10° 233° (SW) 3,474 ? -10.3°
Maximum altitude 22:01:16 36° 298° (WNW) 2,148 ? -10.9°
Drops below altitude 10° 22:09:17 10° 3° (N) 3,662 ? -11.5°
Sets 22:12:37 0° 12° (NNE) 4,661 ? -11.7°
